Wind_Speed
62 63 67 75 79 68 64 64 59 51 47 47 48 50 51 52 53 53 50 50 48 44 45 42 41 45 47 47 42 44 45 31 21 15 14 16 11 11 14 18 20 21 22 23 24 31 46 55 60 63 65 67 59 62
64 68 74 79 76 69 67 56 51 47 45 44 46 49 49 49 51 50 47 48 46 41 40 40 37 40 44 45 39 42 41 34 21 13 15 11 9 12 14 21 21 24 26 27 30 34 45 59 69 67 65 58 61 61
68 71 74 81 75 72 59 48 48 44 42 41 41 42 45 47 47 44 45 43 43 42 35 39 37 36 39 40 35 38 37 34 20 12 15 11 10 15 18 23 24 25 28 31 34 40 48 55 56 57 60 61 57 63
68 71 78 77 74 69 56 48 49 47 44 42 42 40 39 40 42 40 40 41 40 42 35 30 30 30 33 34 30 32 33 33 19 13 9 9 8 11 15 19 24 26 30 34 39 47 54 55 53 53 56 55 62 63
69 73 78 79 77 70 60 54 52 53 49 45 44 42 41 41 40 39 38 39 43 41 31 27 25 26 28 28 28 25 27 30 28 19 3 8 5 11 14 15 20 24 32 38 44 54 63 60 60 61 56 59 63 66
70 74 77 78 78 74 65 56 55 59 52 45 43 45 45 44 43 42 42 42 39 35 26 24 20 22 25 25 25 19 21 22 24 17 5 7 4 3 17 19 24 24 32 40 50 59 65 65 58 64 64 66 67 69
71 75 75 78 79 75 68 60 55 58 55 44 48 54 53 47 43 42 38 35 34 34 29 24 18 18 19 21 23 14 17 18 18 20 4 19 11 10 13 22 24 28 33 43 53 64 61 56 60 67 72 72 73 74
72 77 76 78 77 78 69 65 59 61 62 55 58 59 57 51 46 39 36 34 33 33 26 21 18 17 16 16 19 11 14 15 14 16 6 17 19 16 18 19 25 33 39 48 56 64 63 59 62 62 65 68 71 77
73 78 77 78 79 80 72 69 63 61 63 64 64 64 61 55 46 39 34 32 31 30 26 21 18 18 14 14 13 9 8 11 12 12 12 9 21 29 24 25 18 32 45 54 62 64 62 61 64 65 68 73 67 67
75 79 78 79 80 78 76 72 66 64 66 68 68 66 60 54 46 39 34 30 30 29 26 22 19 18 15 14 12 13 6 6 10 9 10 2 15 27 34 24 25 28 51 58 65 68 67 66 63 63 71 71 71 74
78 80 78 80 81 79 80 74 71 70 70 72 71 67 57 51 43 37 36 31 29 29 26 22 19 18 18 15 11 12 8 5 6 8 6 4 10 19 32 35 32 25 42 63 70 72 73 69 72 66 61 64 76 66
80 82 79 82 82 82 82 77 74 73 73 73 71 65 57 50 42 38 36 34 29 28 27 24 20 19 19 17 12 10 10 10 7 8 4 2 2 15 22 39 47 41 34 53 74 77 80 78 75 72 69 71 76 75
82 82 81 84 85 86 84 81 77 77 76 73 69 64 57 49 41 37 35 36 32 28 26 26 24 21 20 19 15 12 12 14 10 11 7 6 4 7 18 28 39 46 39 34 68 81 81 80 82 81 83 83 75 71
84 82 83 84 87 87 86 83 80 81 78 74 68 68 61 50 42 39 36 36 34 30 29 28 27 24 21 21 20 16 14 12 16 13 14 11 10 8 9 18 31 36 44 45 46 60 81 79 83 84 88 90 83 73
87 82 85 85 87 89 89 85 84 80 76 74 72 69 61 51 44 44 39 37 33 32 30 31 28 27 25 24 23 21 18 14 20 18 20 18 15 13 11 11 15 25 35 43 43 45 57 78 88 85 84 87 88 83
86 87 87 89 90 93 88 87 84 78 75 75 70 64 57 52 46 43 44 39 33 33 32 31 31 28 26 25 26 24 23 17 19 26 22 24 21 16 15 15 15 16 21 32 45 53 55 57 73 83 89 87 84 82
90 88 89 91 93 93 88 87 81 76 74 67 61 62 58 52 51 44 43 38 35 36 34 31 34 32 29 28 30 27 27 23 21 28 30 23 25 22 19 19 19 19 17 22 34 45 53 59 58 65 80 84 86 82
91 91 93 91 91 89 89 86 78 72 63 61 61 63 57 51 49 45 41 36 35 36 35 35 33 37 35 33 33 28 28 29 23 24 34 32 25 27 24 22 21 20 15 15 22 32 41 50 54 55 58 65 82 88
91 94 94 93 89 86 80 76 73 63 62 61 60 60 55 47 44 42 38 31 32 36 39 38 36 40 44 38 31 30 31 33 27 25 28 36 33 27 31 27 23 23 21 17 16 16 24 36 44 54 60 62 66 71
94 95 95 92 87 81 74 70 60 60 58 55 51 47 43 41 39 36 33 27 30 35 40 41 42 41 43 40 38 36 36 36 33 31 29 32 37 33 30 33 30 27 26 22 21 21 21 21 27 40 52 61 68 71
94 94 90 88 84 75 66 58 56 56 58 50 43 41 39 38 38 34 29 28 32 36 41 41 39 40 44 48 44 36 34 34 36 36 34 33 36 38 36 33 35 34 30 26 24 23 25 25 25 29 36 48 57 64
94 89 88 84 76 69 59 56 55 50 50 42 38 35 34 33 32 29 27 26 28 32 39 41 41 42 43 45 47 44 39 35 36 40 41 38 36 38 40 39 36 35 37 34 30 26 24 26 27 27 28 30 38 47
88 85 83 78 71 62 54 56 50 43 43 38 33 31 30 25 25 27 26 24 27 30 35 39 40 41 41 42 44 47 45 41 39 40 38 39 39 37 40 42 42 40 37 36 36 34 29 28 27 26 27 28 29 31
84 80 77 71 65 57 55 54 47 42 39 35 32 30 28 25 23 22 23 23 25 27 30 36 37 39 41 41 41 42 47 48 47 46 40 40 42 42 40 40 44 45 44 41 39 37 37 35 33 30 28 28 29 29
78 77 72 65 60 54 55 53 48 44 38 33 30 27 24 22 21 19 18 19 21 23 25 30 35 38 41 41 41 40 42 49 53 52 50 45 42 44 45 42 42 44 47 47 44 41 39 39 41 39 35 32 31 31
74 72 66 60 55 51 52 50 46 42 37 31 28 24 20 16 14 11 11 10 13 18 23 27 33 37 40 42 44 42 41 43 49 53 53 52 50 47 47 47 44 41 41 46 48 48 46 43 43 43 43 41 39 37
69 66 61 53 48 49 51 47 42 38 34 30 26 22 17 14 16 17 18 18 18 17 19 22 29 35 38 41 43 43 43 45 46 49 50 54 53 51 49 48 49 47 44 44 44 45 47 48 49 49 48 48 49 47
64 60 55 49 45 47 49 44 37 33 30 27 25 22 19 19 20 22 22 23 25 26 27 27 31 35 39 40 40 42 43 45 46 45 46 50 54 53 53 51 50 52 52 51 49 46 45 43 47 52 52 52 51 51
59 54 49 45 43 46 45 41 37 33 29 26 24 21 19 19 20 19 18 19 19 23 27 29 32 35 36 37 39 42 41 42 43 46 48 47 49 52 54 54 54 54 56 58 59 57 52 49 48 48 51 54 55 55
50 46 43 43 44 44 42 39 33 31 29 25 22 21 19 16 14 13 12 13 15 18 19 22 24 28 31 34 36 37 39 41 42 43 47 49 49 51 52 55 56 56 57 58 58 58 58 57 55 54 53 51 52 53
44 42 41 42 45 44 41 37 30 26 27 25 22 20 18 16 14 14 13 13 14 15 18 20 22 24 27 30 32 35 38 39 41 46 49 50 51 51 51 50 53 57 59 58 58 59 59 59 61 62 62 62 61 62
41 42 44 44 43 42 40 37 31 26 23 22 20 19 19 17 15 15 16 16 16 17 17 18 19 21 24 27 30 32 34 37 39 37 38 40 46 45 46 44 45 54 60 61 62 62 62 62 63 63 62 62 64 66
45 45 44 42 38 35 34 34 32 27 24 21 20 19 19 18 17 17 17 16 17 18 18 19 20 20 22 23 26 28 30 32 33 34 34 37 41 42 44 44 44 47 52 56 61 62 61 62 63 64 63 63 65 67
Wind_Direction
334 333 336 335 335 330 329 326 322 315 306 300 298 300 302 307 309 314 321 323 327 330 329 331 337 346 349 353 353 353 4 1 4 27 57 65 83 105 123 124 135 135 140 152 158 172 168 171 173 172 178 176 180 180
334 337 337 336 336 334 330 328 328 323 317 310 302 302 302 301 308 314 319 322 325 325 329 330 334 343 347 353 354 354 2 6 8 37 63 68 88 110 130 131 135 134 144 146 150 157 166 171 172 174 174 174 179 174
338 340 336 339 339 337 335 336 337 334 329 323 318 309 306 306 306 310 315 320 325 323 327 330 330 338 346 351 352 352 359 8 10 39 73 77 121 133 139 137 137 142 143 140 147 155 162 168 171 174 169 176 167 168
338 337 339 341 342 344 344 343 344 341 336 329 325 323 317 311 309 309 310 318 324 328 321 323 326 333 344 349 350 351 354 6 9 31 88 98 133 141 152 151 147 144 144 147 149 154 155 164 164 168 170 162 161 165
338 335 337 341 344 346 346 347 346 344 340 336 332 327 325 322 318 313 312 322 326 325 317 319 324 330 340 348 347 350 352 1 12 28 25 53 131 157 165 158 148 147 149 154 154 154 153 159 162 168 163 158 161 164
336 333 335 340 342 345 346 344 347 348 341 338 334 330 327 323 319 318 322 320 320 324 317 317 320 326 336 346 349 344 345 358 8 21 146 266 333 198 174 168 147 149 152 153 155 156 158 163 164 157 157 160 161 163
334 333 335 338 341 344 344 343 343 346 348 337 334 330 325 321 319 316 314 316 318 322 319 317 311 317 333 342 347 335 340 347 4 14 134 197 250 245 206 174 153 153 153 153 155 153 157 159 161 162 160 159 161 164
331 333 333 335 339 343 340 340 340 341 343 340 338 334 330 323 316 313 312 308 309 315 317 316 307 309 324 334 347 321 335 332 353 11 19 176 200 227 232 203 166 158 155 154 155 155 158 160 161 160 159 159 162 166
330 331 331 332 336 340 339 338 337 337 338 339 338 338 332 327 323 314 309 306 301 306 313 310 302 300 307 320 342 320 314 321 338 2 7 201 177 195 211 211 199 164 160 157 158 159 160 162 162 160 163 159 161 178
328 330 328 332 333 335 335 335 334 335 335 335 335 334 330 326 324 320 311 302 299 297 301 301 295 290 294 306 325 336 281 314 324 344 10 229 198 172 199 209 211 181 167 163 161 163 165 170 165 170 167 173 173 174
328 328 326 328 329 332 332 332 331 331 332 331 332 329 325 323 320 317 315 303 294 292 289 288 282 280 286 290 301 323 275 270 291 313 358 16 213 185 176 200 211 212 181 171 166 167 169 170 172 172 178 176 179 184
327 324 327 326 328 329 330 329 328 329 328 327 328 325 323 319 317 313 310 308 296 286 286 277 273 266 273 275 278 297 282 237 242 268 295 55 176 213 193 186 199 209 203 186 175 174 173 172 174 175 176 179 184 191
323 324 324 325 326 327 328 328 327 325 324 324 322 318 312 311 312 307 305 304 302 287 275 274 266 259 256 262 266 273 280 228 224 239 250 254 164 194 215 200 188 195 208 203 185 179 181 178 175 179 179 184 188 195
322 325 322 323 323 326 325 324 323 322 323 319 317 313 306 303 302 299 298 297 295 291 272 267 266 260 248 247 255 254 266 241 210 230 229 234 228 200 186 205 202 190 183 196 203 197 192 188 187 187 186 189 192 196
321 323 320 321 322 323 324 321 320 321 318 316 314 307 304 303 296 291 288 286 287 284 277 261 262 257 248 239 243 247 248 246 214 217 223 221 221 224 219 200 198 205 201 191 191 196 196 200 201 197 198 198 198 201
319 320 320 321 319 321 322 319 319 317 316 313 308 304 304 302 297 289 282 278 277 274 272 264 252 254 250 241 238 239 240 236 225 209 223 218 213 211 223 227 219 212 212 221 215 199 194 199 203 207 209 209 209 208
320 318 318 319 320 320 319 318 316 316 313 308 303 300 301 299 294 290 281 273 262 263 265 261 250 245 246 241 239 235 239 229 229 213 214 217 217 216 219 227 231 227 222 223 220 212 208 197 198 207 210 212 211 212
318 317 318 319 320 318 318 316 315 314 309 304 303 298 297 293 288 284 278 269 256 251 251 252 248 238 239 238 236 230 233 236 226 224 214 213 215 215 220 226 228 232 226 221 216 212 210 215 212 208 211 214 212 212
316 318 318 320 318 317 316 316 314 311 306 301 295 293 293 290 283 281 277 268 251 242 243 244 242 236 231 233 232 227 226 233 227 229 223 217 214 211 213 219 227 233 228 221 210 206 211 219 220 221 221 217 216 219
317 318 320 318 317 317 317 315 311 310 303 299 298 294 291 287 283 277 273 264 249 239 237 236 235 236 234 231 230 225 222 225 226 227 222 220 217 215 215 216 220 226 229 226 219 208 208 214 225 231 231 230 226 221
317 319 319 317 318 318 318 313 313 310 305 306 301 296 292 288 283 278 268 255 242 235 236 237 234 233 230 228 229 228 224 223 224 227 225 220 215 214 221 220 219 224 225 223 228 224 220 215 217 224 229 232 231 230
319 318 317 317 319 319 318 317 317 311 309 309 303 299 295 289 284 281 271 259 249 237 234 234 232 233 232 230 227 226 224 222 223 224 226 222 220 216 219 223 225 224 226 226 225 227 230 228 223 227 232 233 234 233
318 317 317 318 319 320 320 321 319 317 314 313 309 302 293 289 286 278 271 259 249 239 234 234 233 232 233 232 230 226 224 220 225 230 231 227 225 226 224 224 225 228 228 229 229 225 226 233 235 232 234 235 232 232
316 317 316 318 319 319 322 326 327 325 321 318 314 307 297 288 276 271 267 258 249 246 238 234 234 234 234 234 233 229 226 225 226 229 228 226 227 229 230 230 229 229 229 229 231 230 224 228 236 237 236 237 240 238
316 316 317 319 319 320 324 328 328 327 324 322 319 311 304 298 292 282 281 276 262 248 240 234 234 233 233 233 234 232 230 229 228 228 228 227 226 228 230 230 232 232 234 234 231 232 233 231 232 235 236 240 241 239
316 316 316 318 318 318 325 328 328 327 326 326 323 316 309 302 297 282 265 262 265 258 248 232 227 229 230 231 232 232 230 231 232 231 229 230 229 229 230 229 231 233 234 236 237 236 235 236 236 235 235 235 238 242
314 314 315 316 316 319 327 329 328 327 326 323 322 317 305 285 261 246 232 217 215 224 232 232 230 230 229 230 231 230 230 231 232 233 230 231 231 229 229 229 230 233 234 236 236 237 237 237 236 237 237 237 237 237
313 314 314 314 315 321 326 325 326 330 330 326 325 321 306 289 276 270 263 247 234 228 220 216 222 227 230 231 231 230 228 230 232 235 234 232 232 232 233 232 229 231 233 235 238 239 240 238 235 236 237 238 239 240
312 311 313 312 315 321 324 327 326 328 330 329 328 321 313 303 296 293 289 287 279 260 245 234 229 230 231 231 231 233 230 228 227 229 233 234 234 233 232 233 234 234 234 235 237 239 240 240 240 240 240 241 241 241
309 309 309 309 313 320 322 323 322 324 325 326 328 323 315 306 296 289 280 276 270 269 264 256 252 247 243 238 234 235 235 232 228 228 231 233 234 235 235 234 235 237 240 240 241 243 243 242 243 245 248 250 250 251
307 307 307 309 314 316 317 318 319 319 322 319 322 322 317 308 292 281 274 264 259 256 254 252 249 246 242 238 235 233 234 234 232 230 231 233 234 238 239 237 236 238 241 244 246 247 247 248 248 248 249 251 253 254
305 305 306 308 311 311 312 314 316 316 317 317 312 312 313 307 296 286 278 272 268 266 262 259 257 254 250 246 242 240 240 240 242 239 238 240 243 244 244 242 240 242 243 244 246 247 248 250 252 253 253 253 254 256
300 301 301 303 306 306 306 308 309 309 309 310 309 306 305 304 298 288 280 273 269 267 267 264 259 256 251 248 248 247 246 246 247 246 242 239 241 242 244 244 242 243 246 249 251 252 253 254 256 257 256 256 255 255
Height
10576 10566 10554 10540 10527 10511 10499 10487 10475 10466 10460 10455 10451 10446 10441 10436 10430 10425 10419 10411 10403 10395 10386 10379 10371 10363 10354 10344 10334 10324 10311 10301 10294 10289 10283 10280 10278 10277 10276 10278 10279 10282 10287 10292 10299 10308 10314 10330 10350 10363 10374 10393 10411 10426
10568 10557 10544 10530 10515 10500 10487 10474 10463 10454 10448 10443 10439 10435 10431 10425 10420 10416 10410 10403 10396 10390 10384 10373 10367 10361 10353 10343 10334 10325 10316 10305 10299 10292 10287 10285 10284 10283 10283 10282 10285 10287 10291 10295 10303 10312 10324 10332 10338 10357 10378 10396 10407 10428
10558 10546 10534 10520 10504 10489 10474 10465 10456 10447 10441 10435 10429 10424 10420 10415 10410 10406 10400 10395 10389 10381 10379 10368 10362 10358 10352 10344 10335 10328 10320 10312 10305 10298 10292 10291 10290 10289 10288 10288 10290 10293 10297 10301 10309 10316 10328 10344 10359 10370 10382 10395 10414 10431
10548 10538 10526 10512 10498 10482 10470 10460 10451 10443 10435 10429 10423 10417 10411 10405 10400 10396 10391 10386 10381 10376 10370 10366 10360 10356 10351 10345 10338 10332 10323 10316 10310 10303 10298 10296 10295 10296 10296 10295 10295 10299 10303 10307 10313 10320 10332 10350 10366 10382 10391 10404 10420 10433
10539 10528 10517 10504 10491 10478 10465 10455 10446 10437 10429 10422 10415 10409 10403 10397 10392 10386 10381 10376 10372 10368 10363 10359 10356 10352 10349 10344 10338 10333 10327 10319 10311 10308 10304 10303 10302 10302 10302 10303 10305 10308 10309 10313 10318 10327 10337 10353 10365 10378 10395 10411 10422 10435
10530 10520 10509 10496 10484 10472 10460 10450 10441 10432 10423 10415 10409 10402 10395 10389 10383 10377 10371 10367 10364 10360 10356 10353 10351 10348 10345 10341 10338 10333 10328 10323 10318 10315 10313 10309 10309 10308 10309 10309 10312 10315 10317 10320 10326 10336 10346 10353 10368 10380 10395 10407 10422 10438
10521 10511 10500 10488 10477 10464 10453 10444 10436 10428 10419 10411 10404 10395 10387 10381 10375 10369 10364 10360 10357 10353 10350 10348 10346 10344 10342 10339 10335 10332 10328 10324 10321 10317 10315 10315 10314 10314 10315 10316 10318 10323 10326 10330 10339 10346 10360 10374 10382 10390 10396 10408 10423 10438
10511 10501 10490 10480 10468 10457 10445 10436 10428 10420 10412 10404 10396 10387 10378 10370 10365 10360 10356 10352 10349 10346 10344 10342 10340 10339 10338 10336 10333 10331 10328 10324 10321 10317 10316 10316 10318 10318 10319 10321 10322 10327 10333 10339 10348 10357 10367 10378 10388 10400 10410 10420 10432 10446
10501 10490 10480 10471 10460 10449 10437 10427 10419 10411 10402 10394 10386 10378 10369 10361 10355 10350 10346 10344 10341 10339 10338 10336 10334 10333 10333 10332 10330 10329 10328 10325 10320 10317 10315 10315 10316 10319 10321 10325 10327 10333 10339 10345 10354 10365 10374 10386 10394 10404 10416 10426 10434 10449
10489 10479 10469 10459 10448 10439 10428 10418 10408 10400 10392 10383 10375 10368 10360 10351 10345 10341 10336 10334 10332 10330 10330 10330 10328 10327 10327 10326 10325 10325 10324 10323 10320 10317 10315 10314 10317 10317 10323 10327 10330 10338 10343 10351 10358 10367 10379 10388 10395 10402 10410 10422 10432 10443
10477 10466 10457 10447 10437 10426 10416 10407 10398 10389 10379 10372 10364 10356 10349 10343 10337 10333 10328 10325 10324 10322 10322 10323 10322 10321 10321 10321 10321 10320 10320 10321 10320 10317 10316 10314 10314 10318 10320 10327 10333 10339 10348 10353 10359 10367 10377 10387 10397 10406 10412 10420 10429 10434
10464 10453 10443 10433 10423 10413 10404 10394 10385 10377 10370 10359 10350 10341 10335 10333 10330 10323 10319 10315 10314 10313 10313 10313 10314 10314 10314 10314 10316 10316 10316 10317 10318 10317 10316 10316 10314 10314 10320 10324 10330 10337 10346 10355 10357 10364 10371 10380 10390 10397 10407 10416 10423 10429
10450 10440 10429 10418 10408 10399 10391 10381 10371 10362 10353 10345 10337 10328 10322 10319 10318 10315 10310 10306 10303 10302 10303 10303 10304 10306 10307 10308 10309 10310 10311 10313 10314 10315 10315 10315 10315 10316 10317 10323 10325 10329 10338 10349 10359 10363 10369 10375 10382 10392 10400 10409 10418 10425
10436 10427 10415 10404 10392 10383 10375 10366 10357 10344 10335 10327 10321 10311 10303 10305 10306 10301 10298 10295 10293 10291 10291 10292 10294 10296 10299 10300 10301 10304 10305 10308 10311 10312 10314 10313 10313 10314 10316 10318 10324 10328 10331 10340 10347 10359 10368 10375 10379 10386 10394 10404 10413 10421
10420 10411 10400 10388 10377 10367 10358 10346 10337 10327 10318 10309 10301 10290 10285 10287 10288 10286 10284 10280 10281 10279 10279 10280 10283 10286 10288 10291 10293 10295 10298 10301 10305 10307 10308 10309 10310 10312 10314 10316 10320 10325 10330 10333 10337 10345 10355 10367 10375 10381 10388 10395 10406 10414
10403 10395 10384 10372 10359 10351 10340 10327 10316 10308 10300 10290 10278 10268 10267 10265 10267 10268 10267 10267 10267 10265 10265 10267 10270 10274 10277 10281 10283 10285 10288 10293 10297 10300 10302 10304 10307 10308 10310 10312 10314 10318 10323 10326 10330 10333 10340 10351 10362 10370 10379 10386 10394 10403
10386 10377 10367 10357 10342 10328 10318 10307 10297 10288 10278 10267 10259 10250 10247 10246 10243 10247 10248 10251 10252 10250 10251 10253 10256 10260 10264 10269 10271 10275 10277 10283 10287 10292 10295 10298 10301 10304 10306 10307 10309 10311 10314 10315 10319 10325 10333 10338 10347 10357 10364 10373 10384 10391
10368 10357 10347 10338 10326 10311 10295 10281 10274 10268 10259 10247 10239 10228 10229 10226 10223 10224 10226 10231 10234 10235 10237 10237 10240 10247 10251 10254 10257 10264 10268 10270 10276 10282 10286 10290 10294 10298 10300 10301 10302 10303 10306 10310 10312 10315 10321 10329 10336 10343 10351 10360 10369 10376
10348 10338 10325 10314 10302 10290 10277 10269 10254 10247 10235 10228 10221 10211 10209 10208 10205 10205 10208 10214 10217 10219 10219 10222 10226 10228 10231 10238 10245 10252 10257 10260 10267 10272 10277 10282 10286 10290 10294 10295 10296 10296 10300 10304 10307 10308 10312 10318 10324 10332 10339 10344 10351 10359
10330 10318 10305 10291 10280 10269 10258 10247 10238 10227 10215 10205 10201 10195 10192 10189 10188 10188 10190 10197 10200 10203 10203 10204 10208 10212 10220 10228 10231 10235 10242 10247 10253 10258 10264 10271 10277 10282 10287 10291 10291 10291 10293 10298 10302 10306 10309 10312 10316 10321 10326 10332 10338 10342
10309 10296 10285 10270 10256 10247 10240 10228 10220 10211 10196 10189 10184 10178 10176 10175 10173 10174 10177 10179 10181 10184 10186 10191 10196 10201 10205 10210 10217 10226 10232 10238 10243 10247 10253 10258 10264 10270 10275 10281 10284 10285 10288 10291 10294 10299 10303 10306 10310 10312 10314 10317 10321 10326
10292 10278 10263 10248 10239 10230 10220 10210 10201 10191 10181 10175 10169 10165 10163 10162 10162 10163 10164 10166 10170 10173 10174 10177 10182 10186 10191 10197 10206 10213 10221 10228 10232 10236 10240 10246 10252 10257 10263 10269 10273 10277 10279 10283 10286 10289 10293 10296 10298 10301 10303 10305 10307 10311
10273 10260 10246 10232 10223 10214 10207 10198 10185 10177 10168 10163 10157 10153 10151 10150 10151 10151 10152 10155 10157 10160 10163 10166 10171 10174 10180 10187 10192 10201 10210 10217 10221 10225 10232 10238 10242 10246 10251 10257 10262 10266 10270 10273 10277 10281 10284 10285 10288 10291 10292 10294 10297 10299
10256 10245 10231 10221 10210 10200 10193 10182 10172 10164 10158 10152 10148 10144 10142 10141 10139 10140 10142 10144 10146 10149 10153 10156 10160 10165 10170 10176 10183 10190 10197 10205 10209 10213 10220 10226 10231 10236 10240 10245 10250 10254 10259 10263 10266 10270 10274 10276 10277 10280 10283 10285 10287 10289
10241 10227 10216 10207 10198 10190 10181 10170 10161 10154 10149 10144 10139 10135 10133 10132 10132 10132 10134 10137 10138 10141 10144 10148 10151 10155 10161 10167 10173 10179 10184 10189 10194 10200 10206 10212 10218 10223 10228 10233 10236 10242 10247 10250 10255 10259 10263 10266 10267 10270 10273 10275 10277 10280
10224 10213 10203 10197 10187 10180 10173 10163 10155 10147 10140 10136 10131 10127 10125 10124 10124 10124 10125 10127 10129 10132 10134 10138 10142 10145 10150 10154 10159 10166 10172 10176 10180 10185 10193 10199 10205 10210 10215 10221 10225 10230 10233 10236 10240 10245 10250 10254 10256 10258 10262 10264 10266 10267
10209 10198 10190 10185 10178 10170 10162 10154 10149 10141 10134 10129 10125 10121 10118 10116 10114 10114 10115 10116 10118 10121 10125 10130 10133 10135 10138 10143 10147 10153 10159 10163 10166 10170 10178 10184 10190 10197 10203 10208 10213 10216 10219 10221 10225 10230 10235 10239 10243 10245 10247 10250 10253 10256
10194 10186 10178 10172 10168 10162 10154 10148 10142 10135 10129 10124 10120 10116 10113 10110 10109 10109 10109 10111 10111 10111 10115 10119 10121 10123 10126 10131 10135 10140 10146 10150 10155 10160 10165 10169 10174 10182 10188 10193 10199 10203 10206 10208 10211 10217 10221 10225 10228 10229 10232 10236 10239 10242
10179 10172 10167 10162 10157 10153 10145 10139 10133 10128 10124 10120 10115 10111 10109 10107 10105 10105 10106 10106 10107 10108 10110 10111 10112 10114 10117 10121 10125 10126 10132 10138 10143 10147 10150 10156 10160 10165 10170 10177 10183 10187 10190 10193 10197 10201 10205 10210 10212 10214 10216 10218 10222 10226
10167 10162 10157 10152 10147 10142 10138 10133 10128 10122 10118 10115 10111 10108 10104 10102 10100 10100 10100 10100 10100 10101 10103 10105 10107 10109 10111 10113 10116 10119 10122 10125 10130 10135 10137 10142 10147 10150 10155 10160 10166 10171 10174 10177 10181 10186 10191 10195 10199 10201 10203 10206 10207 10209
10155 10151 10147 10142 10136 10131 10127 10124 10121 10118 10113 10109 10106 10103 10100 10099 10097 10095 10095 10095 10095 10095 10096 10097 10099 10100 10101 10102 10105 10107 10109 10113 10118 10121 10124 10129 10134 10136 10140 10146 10151 10155 10158 10161 10165 10169 10173 10176 10178 10182 10185 10188 10189 10190
10144 10140 10135 10131 10128 10122 10117 10113 10111 10109 10107 10104 10101 10098 10096 10094 10093 10092 10091 10090 10089 10089 10090 10091 10092 10092 10093 10094 10095 10098 10100 10103 10106 10111 10116 10121 10122 10124 10128 10132 10137 10139 10141 10145 10147 10148 10151 10154 10156 10158 10163 10167 10169 10169
10133 10128 10122 10118 10117 10114 10109 10105 10101 10099 10098 10097 10095 10092 10089 10088 10087 10086 10086 10085 10084 10084 10084 10085 10086 10086 10086 10086 10088 10090 10092 10094 10096 10099 10103 10107 10109 10112 10114 10117 10121 10124 10126 10127 10129 10130 10135 10137 10138 10138 10140 10143 10145 10146